Content
SEND FEEDBACK

Daily
Averages
Monthly
Summary
United States of America

EL PASO, TEXAS


Home > North America > United States > Texas
Elevation: 3918 feet     Latitude: 31 48N     Longitude: 106 24W

WEATHER
 
SELECT A DAY
Number of Records: 171,958;   Date Range: 1/1/95 - 7/29/14
 
SHARE

PRINT THIS DATA

[ ← Previous Day ]
WEATHER ALMANAC - FEBRUARY 12, 2014
[ Next Day → ]
[ °C ]   °F
Weather ElementAverageHighLow
Temperature50.4 °F64.9 °F (3:51 pm)32 °F (5:51 am)
Dewpoint18.5 °F24.1 °F (10:51 am)14 °F (1:51 pm)
Humidity32.8 %61 % (5:51 am)14 % (3:51 pm)
Barometer30.05 in30.19 in (9:51 am)29.94 in (11:51 pm)
Wind Speed6.2 mph11.5 mph (7:51 am)
Weather ElementAverage
Visibility10 mi
Wind DirectionSSW (187.4 °)

Weather ElementTotal
Precipitation---
Heating Degree Days16.6 (Base 65)
Averaged from 23 records on February 12, 2014
WEATHER CONDITIONS BREAKOUT
WIND DIRECTION BREAKOUT
WEATHER BY HOUR - FEBRUARY 12, 2014
[ °C ]   °F
Local TimeTemperatureDewpointHumidityBarometerVisibilityWind DirectionWind SpeedGust SpeedPrecipitationEventsConditions
1:51 AM37.9 °F21.9 °F53 %30.06 in10.0 miSE (130°)3.5 mphPartly Cloudy
2:51 AM37.9 °F21.9 °F53 %30.04 in10.0 miSW (230°)6.9 mphPartly Cloudy
3:51 AM37.9 °F23.0 °F55 %30.06 in10.0 miSW (220°)4.6 mphPartly Cloudy
4:51 AM37.0 °F21.9 °F54 %30.08 in10.0 miCalmScattered Clouds
5:51 AM32.0 °F19.9 °F61 %30.12 in10.0 miENE (60°)3.5 mphScattered Clouds
6:51 AM32.0 °F19.0 °F59 %30.15 in10.0 miNorth (360°)8.1 mphScattered Clouds
7:51 AM34.0 °F19.9 °F56 %30.18 in10.0 miNorth (360°)11.5 mphScattered Clouds
8:51 AM42.1 °F23.0 °F47 %30.17 in10.0 miNorth (350°)8.1 mphScattered Clouds
9:51 AM46.0 °F23.0 °F40 %30.19 in10.0 miEast (100°)9.2 mphScattered Clouds
10:51 AM53.1 °F24.1 °F32 %30.16 in10.0 miNorth (360°)3.5 mphPartly Cloudy
11:51 AM57.9 °F23.0 °F26 %30.11 in10.0 miNorth (350°)8.1 mphScattered Clouds
12:51 PM61.0 °F19.0 °F20 %30.06 in10.0 miNorth (360°)8.1 mphScattered Clouds
1:51 PM62.1 °F14.0 °F15 %30.03 in10.0 miCalmScattered Clouds
2:51 PM63.0 °F15.1 °F16 %29.99 in10.0 miCalmScattered Clouds
3:51 PM64.9 °F14.0 °F14 %29.99 in10.0 miVariable5.8 mphScattered Clouds
4:51 PM64.0 °F17.1 °F16 %29.98 in10.0 miWSW (250°)9.2 mphScattered Clouds
5:51 PM62.1 °F16.0 °F17 %29.99 in10.0 miSouth (180°)6.9 mphScattered Clouds
6:51 PM59.0 °F17.1 °F20 %30.00 in10.0 miSouth (190°)5.8 mphScattered Clouds
7:51 PM57.0 °F15.1 °F19 %29.99 in10.0 miSouth (170°)4.6 mphScattered Clouds
8:51 PM55.9 °F15.1 °F20 %29.99 in10.0 miSouth (170°)9.2 mphMostly Cloudy
9:51 PM55.9 °F14.0 °F19 %29.96 in10.0 miSSE (150°)11.5 mphMostly Cloudy
10:51 PM54.0 °F14.0 °F21 %29.95 in10.0 miSSE (160°)8.1 mphScattered Clouds
11:51 PM53.1 °F14.0 °F21 %29.94 in10.0 miSSE (160°)5.8 mphScattered Clouds
Hourly data recorded from KELP, located miles away from El Paso, Texas







STORIES FROM OUR PARTNERS